Simultaneous Nadir Overpasses (SNOs) Predictions

Prediction of SNOs between GOES-15 and LANDSAT-8 Satellite Orbit:

Table of predicted SNOs for the next 14.0 days since TLE Epoch: 8/31/2024
Index Date Time (GOES-15) GOES-15 Lat,Lon LANDSAT-8 Lat,Lon Distance(km) Time Diff (sec)
1 08/31/2024 17:49:58 0.23, 61.58 1.13, 65.70 469.15 80
2 09/01/2024 06:08:35 -0.26, 61.45 -0.08, 60.53 103.81 80
3 09/03/2024 05:59:05 -0.26, 61.42 -0.68, 63.49 234.29 80
4 09/03/2024 18:17:50 0.29, 61.54 -0.40, 58.29 369.44 80
5 09/05/2024 18:05:39 0.28, 61.52 0.20, 61.25 31.24 80
6 09/07/2024 17:56:08 0.28, 61.51 0.84, 64.21 307.15 80
7 09/08/2024 06:14:44 -0.30, 61.38 0.22, 59.05 266.08 80
8 09/10/2024 06:05:12 -0.29, 61.38 -0.43, 62.01 71.78 80
9 09/12/2024 05:52:59 -0.28, 61.38 -1.07, 64.97 409.28 80
10 09/12/2024 18:11:42 0.30, 61.50 -0.07, 59.79 194.08 80
